N5GAH-13 Weather Reports


Display with metric or nautical units.
time (UTC)temp
F
wind
direction
speed
MPH
gust
MPH
rain 1hr
in
rain 24hr
in
rain mn
in
humidity
%
barometer
mb
20260905233034 98 124 6.0 12.0 0.00 0.00 0.00 33 1017.9
20260905223034 101 115 6.0 12.0 0.00 0.00 0.00 30 1018.0
20260905220034 102 135 6.0 15.0 0.00 0.00 0.00 32 1017.9
20260905213034 102 104 7.0 16.0 0.00 0.00 0.00 32 1018.6
20260905210034 103 136 5.0 13.0 0.00 0.00 0.00 32 1018.8
20260905203034 103 130 5.0 13.0 0.00 0.00 0.00 31 1019.4
20260905200034 102 118 7.0 14.0 0.00 0.00 0.00 32 1019.8
20260905193034 101 123 7.0 15.0 0.00 0.00 0.00 34 1020.2
20260905190034 101 145 6.0 13.0 0.00 0.00 0.00 35 1020.4
20260905183034 99 115 6.0 11.0 0.00 0.00 0.00 37 1020.8
20260905180034 98 112 5.0 11.0 0.00 0.00 0.00 39 1021.2
20260905173034 96 102 4.0 9.0 0.00 0.00 0.00 41 1021.4
20260905170034 93 188 3.0 6.0 0.00 0.00 0.00 46 1021.5
20260905163034 90 213 4.0 8.0 0.00 0.00 0.00 51 1021.6
20260905160034 87 198 5.0 11.0 0.00 0.00 0.00 55 1021.5
20260905150034 80 195 5.0 10.0 0.00 0.00 0.00 66 1021.8
20260905143034 78 178 3.0 10.0 0.00 0.00 0.00 68 1021.5
20260905140034 76 153 5.0 11.0 0.00 0.00 0.00 74 1021.2
20260905133034 72 147 3.0 7.0 0.00 0.00 0.00 77 1021.1
20260905130034 71 147 3.0 6.0 0.00 0.00 0.00 77 1020.7
20260905123035 72 136 2.0 4.0 0.00 0.00 0.00 77 1020.6
20260905120034 72 114 4.0 9.0 0.00 0.00 0.00 77 1020.7
20260905110035 73 108 2.0 4.0 0.00 0.00 0.00 76 1020.8
20260905103034 74 126 2.0 4.0 0.00 0.00 0.00 73 1020.8
20260905100035 74 122 3.0 4.0 0.00 0.00 0.00 72 1020.5
20260905090035 75 202 3.0 5.0 0.00 0.00 0.00 71 1020.2
20260905083035 76 195 2.0 5.0 0.00 0.00 0.00 69 1020.4
20260905080034 76 200 4.0 6.0 0.00 0.00 0.00 69 1020.3
20260905073034 77 201 3.0 6.0 0.00 0.00 0.00 68 1020.5
20260905070034 78 198 4.0 10.0 0.00 0.00 0.00 67 1020.6
20260905063034 78 186 4.0 7.0 0.00 0.00 0.00 65 1020.8
20260905060034 79 194 4.0 9.0 0.00 0.00 0.00 64 1020.6
20260905053034 80 190 5.0 12.0 0.00 0.00 0.00 62 1020.6
20260905050034 81 183 4.0 14.0 0.00 0.00 0.00 61 1020.8
20260905043034 82 166 5.0 13.0 0.00 0.00 0.00 57 1020.8
20260905040034 83 156 6.0 16.0 0.00 0.00 0.00 53 1020.8
20260905033034 84 147 6.0 15.0 0.00 0.00 0.00 48 1020.6
20260905030034 86 155 8.0 19.0 0.00 0.00 0.00 48 1020.1
20260905023034 88 145 7.0 14.0 0.00 0.00 0.00 45 1019.3
20260905020034 90 147 7.0 19.0 0.00 0.00 0.00 40 1018.5
20260905013034 93 170 1.0 2.0 0.00 0.00 0.00 30 1017.9
20260905010034 96 209 0.0 2.0 0.00 0.00 0.00 29 1017.8
20260905003034 98 165 1.0 4.0 0.00 0.00 0.00 26 1017.7
20260905000034 99 205 2.0 4.0 0.00 0.00 0.00 25 1017.5